Time,TemperatureF,DewpointF,PressureIn,WindDirection,WindDirectionDegrees,WindSpeedMPH,WindSpeedGustMPH,Humidity,HourlyPrecipIn,Conditions,Clouds,dailyrainin,SoftwareType,DateUTC
2013-10-30 00:00:00,52.9,38.1,28.67,SSE,158,10.3,11.0,57,0.00,,,0.00,VWS V14.01,2013-10-30 05:00:00,
2013-10-30 00:05:00,52.9,38.1,28.67,SE,135,7.8,12.3,57,0.00,,,0.00,VWS V14.01,2013-10-30 05:05:00,
2013-10-30 00:10:00,52.7,37.9,28.67,SSE,158,7.6,9.6,57,0.00,,,0.00,VWS V14.01,2013-10-30 05:10:00,
2013-10-30 00:15:00,52.7,38.3,28.67,SE,135,7.6,11.0,58,0.00,,,0.00,VWS V14.01,2013-10-30 05:15:00,
2013-10-30 00:20:00,52.7,38.3,28.67,SE,135,6.5,11.9,58,0.00,,,0.00,VWS V14.01,2013-10-30 05:20:00,
2013-10-30 00:25:00,52.7,38.3,28.67,SSE,158,7.6,10.7,58,0.00,,,0.00,VWS V14.01,2013-10-30 05:25:00,
2013-10-30 00:30:00,52.7,38.3,28.67,SE,135,6.3,11.4,58,0.00,,,0.00,VWS V14.01,2013-10-30 05:30:00,
2013-10-30 00:35:00,52.9,38.1,28.67,ESE,112,8.1,12.8,57,0.00,,,0.00,VWS V14.01,2013-10-30 05:35:00,
2013-10-30 00:40:00,52.5,38.2,28.67,SSE,158,8.7,9.8,58,0.00,,,0.00,VWS V14.01,2013-10-30 05:40:00,
2013-10-30 00:45:00,52.5,38.6,28.67,SSE,158,5.8,11.0,59,0.00,,,0.00,VWS V14.01,2013-10-30 05:45:00,
2013-10-30 00:50:00,52.5,38.6,28.67,SSE,158,5.6,10.3,59,0.00,,,0.00,VWS V14.01,2013-10-30 05:50:00,
2013-10-30 00:55:00,52.5,38.6,28.67,SSE,158,5.6,9.0,59,0.00,,,0.00,VWS V14.01,2013-10-30 05:55:00,
2013-10-30 01:00:00,52.5,39.5,28.67,SSE,158,10.3,10.3,61,0.00,,,0.00,VWS V14.01,2013-10-30 06:00:00,
2013-10-30 01:05:00,52.2,40.0,28.67,SSE,158,6.3,10.5,63,0.00,,,0.00,VWS V14.01,2013-10-30 06:05:00,
2013-10-30 01:10:00,51.8,40.8,28.67,SSE,158,6.3,7.8,66,0.00,,,0.00,VWS V14.01,2013-10-30 06:10:00,
2013-10-30 01:15:00,51.6,41.8,28.67,SE,135,6.7,10.1,69,0.00,,,0.00,VWS V14.01,2013-10-30 06:15:00,
2013-10-30 01:20:00,51.3,42.5,28.67,SSE,158,8.1,10.3,72,0.00,,,0.00,VWS V14.01,2013-10-30 06:20:00,
2013-10-30 01:25:00,51.1,43.1,28.67,SSE,158,5.4,10.3,74,0.00,,,0.00,VWS V14.01,2013-10-30 06:25:00,
2013-10-30 01:30:00,50.7,43.4,28.67,ESE,112,6.3,8.5,76,0.00,,,0.00,VWS V14.01,2013-10-30 06:30:00,
2013-10-30 01:35:00,50.5,44.0,28.67,SE,135,7.6,8.7,78,0.00,,,0.00,VWS V14.01,2013-10-30 06:35:00,
2013-10-30 01:40:00,50.5,44.6,28.67,ESE,112,5.4,8.1,80,0.00,,,0.00,VWS V14.01,2013-10-30 06:40:00,
2013-10-30 01:45:00,50.4,44.4,28.67,SE,135,3.6,5.8,80,0.00,,,0.00,VWS V14.01,2013-10-30 06:45:00,
2013-10-30 01:50:00,50.2,44.6,28.67,ESE,112,4.3,5.4,81,0.00,,,0.00,VWS V14.01,2013-10-30 06:50:00,
2013-10-30 01:55:00,50.2,44.6,28.67,SE,135,3.4,4.3,81,0.00,,,0.00,VWS V14.01,2013-10-30 06:55:00,
2013-10-30 02:00:00,50.2,44.6,28.67,ESE,112,3.4,4.7,81,0.00,,,0.00,VWS V14.01,2013-10-30 07:00:00,
2013-10-30 02:05:00,50.2,44.9,28.67,ESE,112,5.6,5.8,82,0.00,,,0.00,VWS V14.01,2013-10-30 07:05:00,
2013-10-30 02:10:00,50.2,45.2,28.67,ESE,112,4.0,6.5,83,0.00,,,0.00,VWS V14.01,2013-10-30 07:10:00,
2013-10-30 02:15:00,50.2,45.2,28.67,SE,135,4.9,6.0,83,0.00,,,0.00,VWS V14.01,2013-10-30 07:15:00,
2013-10-30 02:20:00,50.2,45.5,28.67,ESE,112,3.6,5.6,84,0.00,,,0.00,VWS V14.01,2013-10-30 07:20:00,
2013-10-30 02:25:00,50.2,45.8,28.67,ESE,112,4.3,6.5,85,0.00,,,0.00,VWS V14.01,2013-10-30 07:25:00,
2013-10-30 02:30:00,50.2,45.8,28.67,SE,135,4.3,6.0,85,0.00,,,0.00,VWS V14.01,2013-10-30 07:30:00,
2013-10-30 02:35:00,50.2,46.2,28.64,ESE,112,4.3,6.0,86,0.00,,,0.00,VWS V14.01,2013-10-30 07:35:00,
2013-10-30 02:40:00,50.2,46.2,28.64,ESE,112,4.0,4.5,86,0.00,,,0.00,VWS V14.01,2013-10-30 07:40:00,
2013-10-30 02:45:00,50.2,46.2,28.64,SE,135,3.8,5.4,86,0.00,,,0.00,VWS V14.01,2013-10-30 07:45:00,
2013-10-30 02:50:00,50.2,46.2,28.64,ESE,112,5.4,5.8,86,0.00,,,0.00,VWS V14.01,2013-10-30 07:50:00,
2013-10-30 02:55:00,50.2,46.5,28.64,ESE,112,3.6,5.8,87,0.00,,,0.00,VWS V14.01,2013-10-30 07:55:00,
2013-10-30 03:00:00,50.2,46.5,28.64,ESE,112,4.3,5.4,87,0.00,,,0.00,VWS V14.01,2013-10-30 08:00:00,
2013-10-30 03:05:00,50.2,46.8,28.64,ESE,112,4.5,6.0,88,0.00,,,0.00,VWS V14.01,2013-10-30 08:05:00,
2013-10-30 03:10:00,50.2,46.8,28.64,ESE,112,3.6,5.4,88,0.00,,,0.00,VWS V14.01,2013-10-30 08:10:00,
2013-10-30 03:15:00,50.2,46.8,28.64,ESE,112,6.3,6.3,88,0.00,,,0.00,VWS V14.01,2013-10-30 08:15:00,
2013-10-30 03:20:00,50.2,47.1,28.64,ESE,112,4.7,6.5,89,0.00,,,0.00,VWS V14.01,2013-10-30 08:20:00,
2013-10-30 03:25:00,50.2,47.1,28.64,ESE,112,5.8,6.0,89,0.00,,,0.00,VWS V14.01,2013-10-30 08:25:00,
2013-10-30 03:30:00,50.2,47.1,28.64,ESE,112,3.8,6.5,89,0.00,,,0.00,VWS V14.01,2013-10-30 08:30:00,
2013-10-30 03:35:00,50.2,46.2,28.64,ESE,112,4.3,6.0,86,0.00,,,0.00,VWS V14.01,2013-10-30 08:35:00,
2013-10-30 03:40:00,50.2,47.4,28.64,ESE,112,4.9,5.6,90,0.00,,,0.00,VWS V14.01,2013-10-30 08:40:00,
2013-10-30 03:45:00,50.2,47.4,28.64,ESE,112,4.3,7.8,90,0.00,,,0.00,VWS V14.01,2013-10-30 08:45:00,
2013-10-30 03:50:00,50.2,47.4,28.64,ESE,112,5.6,6.7,90,0.00,,,0.00,VWS V14.01,2013-10-30 08:50:00,
2013-10-30 03:55:00,50.2,47.7,28.64,ESE,112,3.8,6.3,91,0.00,,,0.00,VWS V14.01,2013-10-30 08:55:00,
2013-10-30 04:00:00,50.2,47.7,28.64,ESE,112,3.6,5.8,91,0.00,,,0.00,VWS V14.01,2013-10-30 09:00:00,
2013-10-30 04:05:00,50.2,46.8,28.64,ESE,112,4.5,6.0,88,0.00,,,0.00,VWS V14.01,2013-10-30 09:05:00,
2013-10-30 04:10:00,50.2,47.7,28.64,ESE,112,4.9,6.5,91,0.00,,,0.00,VWS V14.01,2013-10-30 09:10:00,
2013-10-30 04:15:00,50.2,47.7,28.64,ESE,112,4.9,5.8,91,0.00,,,0.00,VWS V14.01,2013-10-30 09:15:00,
2013-10-30 04:20:00,50.2,48.0,28.64,ESE,112,4.0,7.4,92,0.00,,,0.00,VWS V14.01,2013-10-30 09:20:00,
2013-10-30 04:25:00,50.2,48.0,28.64,ESE,112,5.4,6.0,92,0.00,,,0.00,VWS V14.01,2013-10-30 09:25:00,
2013-10-30 04:30:00,50.2,48.0,28.64,ESE,112,4.0,7.4,92,0.00,,,0.00,VWS V14.01,2013-10-30 09:30:00,
2013-10-30 04:35:00,50.2,48.0,28.61,ESE,112,4.9,6.0,92,0.00,,,0.00,VWS V14.01,2013-10-30 09:35:00,
2013-10-30 04:40:00,50.2,47.4,28.64,ESE,112,4.9,5.6,90,0.00,,,0.00,VWS V14.01,2013-10-30 09:40:00,
2013-10-30 04:45:00,50.2,48.0,28.61,ESE,112,5.6,6.5,92,0.00,,,0.00,VWS V14.01,2013-10-30 09:45:00,
2013-10-30 04:50:00,50.2,48.2,28.61,SE,135,3.4,6.5,93,0.00,,,0.00,VWS V14.01,2013-10-30 09:50:00,
2013-10-30 04:55:00,50.2,48.2,28.61,ESE,112,4.9,5.8,93,0.00,,,0.00,VWS V14.01,2013-10-30 09:55:00,
2013-10-30 05:00:00,50.2,48.2,28.61,ESE,112,4.3,6.5,93,0.00,,,0.00,VWS V14.01,2013-10-30 10:00:00,
2013-10-30 05:05:00,50.2,48.2,28.61,SE,135,5.4,7.4,93,0.00,,,0.00,VWS V14.01,2013-10-30 10:05:00,
2013-10-30 05:10:00,50.4,48.4,28.61,ESE,112,4.0,6.5,93,0.00,,,0.00,VWS V14.01,2013-10-30 10:10:00,
2013-10-30 05:15:00,50.2,47.7,28.64,ESE,112,4.9,5.8,91,0.00,,,0.00,VWS V14.01,2013-10-30 10:15:00,
2013-10-30 05:20:00,50.4,48.7,28.61,ESE,112,5.4,6.3,94,0.00,,,0.00,VWS V14.01,2013-10-30 10:20:00,
2013-10-30 05:25:00,50.4,48.7,28.61,ESE,112,4.7,6.0,94,0.00,,,0.00,VWS V14.01,2013-10-30 10:25:00,
2013-10-30 05:30:00,50.4,48.7,28.61,ESE,112,4.3,6.5,94,0.00,,,0.00,VWS V14.01,2013-10-30 10:30:00,
2013-10-30 05:35:00,50.4,48.7,28.61,SE,135,4.3,5.4,94,0.00,,,0.00,VWS V14.01,2013-10-30 10:35:00,
2013-10-30 05:40:00,50.4,48.7,28.61,SE,135,4.3,6.3,94,0.00,,,0.00,VWS V14.01,2013-10-30 10:40:00,
2013-10-30 05:45:00,50.4,48.7,28.61,ESE,112,4.9,5.8,94,0.00,,,0.00,VWS V14.01,2013-10-30 10:45:00,
2013-10-30 05:50:00,50.2,48.2,28.61,SE,135,3.4,6.5,93,0.00,,,0.00,VWS V14.01,2013-10-30 10:50:00,
2013-10-30 05:55:00,50.4,48.7,28.61,ESE,112,3.8,4.9,94,0.00,,,0.00,VWS V14.01,2013-10-30 10:55:00,
2013-10-30 06:00:00,50.4,48.7,28.61,SE,135,3.1,5.6,94,0.00,,,0.00,VWS V14.01,2013-10-30 11:00:00,
2013-10-30 06:05:00,50.2,48.2,28.61,SE,135,5.4,7.4,93,0.00,,,0.00,VWS V14.01,2013-10-30 11:05:00,
2013-10-30 06:10:00,50.4,48.7,28.61,ESE,112,6.3,6.3,94,0.00,,,0.00,VWS V14.01,2013-10-30 11:10:00,
2013-10-30 06:15:00,50.4,49.0,28.61,SE,135,4.0,7.2,95,0.00,,,0.00,VWS V14.01,2013-10-30 11:15:00,
2013-10-30 06:20:00,50.4,49.0,28.61,SE,135,5.4,7.2,95,0.00,,,0.00,VWS V14.01,2013-10-30 11:20:00,
2013-10-30 06:25:00,50.4,48.7,28.61,ESE,112,4.7,6.0,94,0.00,,,0.00,VWS V14.01,2013-10-30 11:25:00,
2013-10-30 06:30:00,50.4,49.0,28.61,ESE,112,4.0,6.5,95,0.00,,,0.00,VWS V14.01,2013-10-30 11:30:00,
2013-10-30 06:35:00,50.4,49.0,28.61,ESE,112,4.9,6.3,95,0.00,,,0.00,VWS V14.01,2013-10-30 11:35:00,
2013-10-30 06:40:00,50.4,49.0,28.61,ESE,112,4.3,6.0,95,0.00,,,0.00,VWS V14.01,2013-10-30 11:40:00,
2013-10-30 06:45:00,50.4,49.0,28.61,ENE,68,3.6,6.3,95,0.00,,,0.00,VWS V14.01,2013-10-30 11:45:00,
2013-10-30 06:50:00,50.4,49.0,28.58,ESE,112,6.3,6.3,95,0.00,,,0.00,VWS V14.01,2013-10-30 11:50:00,
2013-10-30 06:55:00,50.2,48.8,28.58,ESE,112,6.5,7.8,95,0.00,,,0.00,VWS V14.01,2013-10-30 11:55:00,
2013-10-30 07:00:00,50.4,48.7,28.61,SE,135,3.1,5.6,94,0.00,,,0.00,VWS V14.01,2013-10-30 12:00:00,
2013-10-30 07:05:00,50.2,48.8,28.61,ESE,112,5.6,7.2,95,0.00,,,0.00,VWS V14.01,2013-10-30 12:05:00,
2013-10-30 07:10:00,50.2,48.8,28.61,ESE,112,5.8,6.3,95,0.00,,,0.00,VWS V14.01,2013-10-30 12:10:00,
2013-10-30 07:15:00,50.2,48.8,28.61,ESE,112,5.6,6.3,95,0.00,,,0.00,VWS V14.01,2013-10-30 12:15:00,
2013-10-30 07:20:00,50.4,49.0,28.61,SE,135,5.4,7.2,95,0.00,,,0.00,VWS V14.01,2013-10-30 12:20:00,
2013-10-30 07:25:00,50.2,49.1,28.58,ESE,112,2.7,5.8,96,0.00,,,0.00,VWS V14.01,2013-10-30 12:25:00,
2013-10-30 07:30:00,50.2,49.1,28.58,SE,135,4.0,5.8,96,0.00,,,0.00,VWS V14.01,2013-10-30 12:30:00,
2013-10-30 07:35:00,50.4,49.0,28.61,ESE,112,4.9,6.3,95,0.00,,,0.00,VWS V14.01,2013-10-30 12:35:00,
2013-10-30 07:40:00,50.4,49.3,28.61,SSE,158,4.9,7.4,96,0.00,,,0.00,VWS V14.01,2013-10-30 12:40:00,
2013-10-30 07:45:00,50.4,49.3,28.61,SE,135,5.4,6.7,96,0.00,,,0.00,VWS V14.01,2013-10-30 12:45:00,
2013-10-30 07:50:00,50.4,49.3,28.61,ESE,112,4.5,5.4,96,0.00,,,0.00,VWS V14.01,2013-10-30 12:50:00,
2013-10-30 07:55:00,50.4,49.3,28.61,SE,135,3.6,6.3,96,0.00,,,0.00,VWS V14.01,2013-10-30 12:55:00,
2013-10-30 08:00:00,50.4,49.3,28.61,SE,135,3.6,4.7,96,0.00,,,0.00,VWS V14.01,2013-10-30 13:00:00,
2013-10-30 08:05:00,50.5,49.7,28.61,East,90,2.9,4.7,97,0.00,,,0.00,VWS V14.01,2013-10-30 13:05:00,
2013-10-30 08:10:00,50.2,48.8,28.61,ESE,112,5.8,6.3,95,0.00,,,0.00,VWS V14.01,2013-10-30 13:10:00,
2013-10-30 08:15:00,50.5,49.7,28.61,SSE,158,2.0,3.1,97,0.00,,,0.00,VWS V14.01,2013-10-30 13:15:00,
2013-10-30 08:20:00,50.7,49.9,28.64,SSE,158,3.6,3.6,97,0.00,,,0.00,VWS V14.01,2013-10-30 13:20:00,
2013-10-30 08:25:00,50.7,49.9,28.64,SSW,202,2.7,4.9,97,0.00,,,0.00,VWS V14.01,2013-10-30 13:25:00,
2013-10-30 08:30:00,50.7,49.9,28.64,SSW,202,1.6,2.7,97,0.00,,,0.00,VWS V14.01,2013-10-30 13:30:00,
2013-10-30 08:35:00,50.9,50.4,28.64,SSW,202,2.9,3.6,98,0.00,,,0.00,VWS V14.01,2013-10-30 13:35:00,
2013-10-30 08:40:00,51.1,50.5,28.64,SSW,202,4.0,4.3,98,0.00,,,0.00,VWS V14.01,2013-10-30 13:40:00,
2013-10-30 08:45:00,50.4,49.3,28.61,SE,135,5.4,6.7,96,0.00,,,0.00,VWS V14.01,2013-10-30 13:45:00,
2013-10-30 08:50:00,51.1,50.5,28.67,WSW,248,2.9,4.3,98,0.00,,,0.00,VWS V14.01,2013-10-30 13:50:00,
2013-10-30 08:55:00,51.1,50.5,28.67,WNW,292,2.5,3.1,98,0.04,,,0.04,VWS V14.01,2013-10-30 13:55:00,
2013-10-30 09:00:00,51.3,50.7,28.67,SSW,202,2.5,5.6,98,0.04,,,0.04,VWS V14.01,2013-10-30 14:00:00,
2013-10-30 09:05:00,51.3,50.7,28.64,West,270,2.9,3.8,98,0.04,,,0.04,VWS V14.01,2013-10-30 14:05:00,
2013-10-30 09:10:00,51.3,50.7,28.64,West,270,1.6,2.9,98,0.04,,,0.04,VWS V14.01,2013-10-30 14:10:00,
2013-10-30 09:15:00,51.3,50.7,28.64,NNW,338,1.6,2.5,98,0.04,,,0.04,VWS V14.01,2013-10-30 14:15:00,
2013-10-30 09:20:00,51.3,50.7,28.64,NNE,22,2.0,4.7,98,0.04,,,0.04,VWS V14.01,2013-10-30 14:20:00,
2013-10-30 09:25:00,51.3,50.7,28.64,ENE,68,3.1,3.1,98,0.04,,,0.04,VWS V14.01,2013-10-30 14:25:00,
2013-10-30 09:30:00,51.1,50.5,28.64,ENE,68,4.0,4.9,98,0.04,,,0.04,VWS V14.01,2013-10-30 14:30:00,
2013-10-30 09:35:00,51.3,50.7,28.61,NE,45,1.6,4.3,98,0.04,,,0.04,VWS V14.01,2013-10-30 14:35:00,
2013-10-30 09:40:00,51.4,50.9,28.61,ENE,68,4.0,5.4,98,0.04,,,0.04,VWS V14.01,2013-10-30 14:40:00,
2013-10-30 09:45:00,51.4,50.9,28.61,ESE,112,6.5,8.7,98,0.04,,,0.04,VWS V14.01,2013-10-30 14:45:00,
2013-10-30 09:50:00,51.6,51.1,28.55,East,90,9.6,10.7,98,0.04,,,0.04,VWS V14.01,2013-10-30 14:50:00,
2013-10-30 09:55:00,51.6,51.1,28.55,ESE,112,5.8,10.3,98,0.04,,,0.04,VWS V14.01,2013-10-30 14:55:00,
2013-10-30 10:00:00,51.6,51.1,28.55,ENE,68,5.8,10.7,98,0.00,,,0.04,VWS V14.01,2013-10-30 15:00:00,
2013-10-30 10:05:00,51.8,51.3,28.52,ESE,112,7.8,8.5,98,0.00,,,0.04,VWS V14.01,2013-10-30 15:05:00,
2013-10-30 10:10:00,51.3,50.7,28.64,West,270,1.6,2.9,98,0.04,,,0.04,VWS V14.01,2013-10-30 15:10:00,
2013-10-30 10:15:00,51.8,51.3,28.52,SE,135,10.3,12.3,98,0.00,,,0.04,VWS V14.01,2013-10-30 15:15:00,
2013-10-30 10:20:00,51.8,51.3,28.55,SE,135,8.5,13.0,98,0.00,,,0.04,VWS V14.01,2013-10-30 15:20:00,
2013-10-30 10:25:00,51.8,51.3,28.55,ESE,112,6.0,11.0,98,0.00,,,0.04,VWS V14.01,2013-10-30 15:25:00,
2013-10-30 10:30:00,51.8,51.3,28.55,SE,135,12.8,12.8,98,0.00,,,0.04,VWS V14.01,2013-10-30 15:30:00,
2013-10-30 10:35:00,51.8,51.3,28.55,SE,135,14.8,15.4,98,0.00,,,0.04,VWS V14.01,2013-10-30 15:35:00,
2013-10-30 10:40:00,51.8,51.3,28.55,SE,135,17.9,20.1,98,0.00,,,0.04,VWS V14.01,2013-10-30 15:40:00,
2013-10-30 10:45:00,51.8,51.3,28.55,SE,135,14.8,17.9,98,0.00,,,0.04,VWS V14.01,2013-10-30 15:45:00,
2013-10-30 10:50:00,51.8,51.3,28.52,ESE,112,14.5,17.2,98,0.00,,,0.04,VWS V14.01,2013-10-30 15:50:00,
2013-10-30 10:55:00,51.8,51.3,28.52,SSE,158,11.0,15.2,98,0.00,,,0.04,VWS V14.01,2013-10-30 15:55:00,
2013-10-30 11:00:00,52.0,51.4,28.52,SSE,158,12.5,15.2,98,0.00,,,0.04,VWS V14.01,2013-10-30 16:00:00,
2013-10-30 11:05:00,51.8,51.3,28.52,ESE,112,7.8,8.5,98,0.00,,,0.04,VWS V14.01,2013-10-30 16:05:00,
2013-10-30 11:10:00,52.2,51.6,28.55,SE,135,9.6,17.2,98,0.00,,,0.04,VWS V14.01,2013-10-30 16:10:00,
2013-10-30 11:15:00,52.3,51.8,28.55,SE,135,16.8,18.6,98,0.00,,,0.04,VWS V14.01,2013-10-30 16:15:00,
2013-10-30 11:20:00,52.5,52.0,28.55,ESE,112,19.9,21.9,98,0.00,,,0.04,VWS V14.01,2013-10-30 16:20:00,
2013-10-30 11:25:00,52.5,52.0,28.55,SSE,158,14.3,22.4,98,0.00,,,0.04,VWS V14.01,2013-10-30 16:25:00,
2013-10-30 11:30:00,52.9,52.3,28.55,SSE,158,18.8,26.2,98,0.00,,,0.04,VWS V14.01,2013-10-30 16:30:00,
2013-10-30 11:35:00,53.1,52.5,28.55,SSE,158,16.6,23.9,98,0.00,,,0.04,VWS V14.01,2013-10-30 16:35:00,
2013-10-30 11:40:00,53.1,52.5,28.55,SSE,158,14.8,22.6,98,0.00,,,0.04,VWS V14.01,2013-10-30 16:40:00,
2013-10-30 11:45:00,51.8,51.3,28.55,SE,135,14.8,17.9,98,0.00,,,0.04,VWS V14.01,2013-10-30 16:45:00,
2013-10-30 11:50:00,53.6,53.0,28.55,SSE,158,16.6,17.7,98,0.00,,,0.04,VWS V14.01,2013-10-30 16:50:00,
2013-10-30 11:55:00,51.8,51.3,28.52,SSE,158,11.0,15.2,98,0.00,,,0.04,VWS V14.01,2013-10-30 16:55:00,
2013-10-30 12:00:00,54.7,54.1,28.55,SSE,158,17.0,17.0,98,0.00,,,0.04,VWS V14.01,2013-10-30 17:00:00,
2013-10-30 12:05:00,55.6,55.0,28.55,SSE,158,14.1,19.9,98,0.00,,,0.04,VWS V14.01,2013-10-30 17:05:00,
2013-10-30 12:10:00,57.6,57.0,28.55,SSE,158,23.0,24.2,98,0.00,,,0.04,VWS V14.01,2013-10-30 17:10:00,
2013-10-30 12:15:00,52.3,51.8,28.55,SE,135,16.8,18.6,98,0.00,,,0.04,VWS V14.01,2013-10-30 17:15:00,
2013-10-30 12:20:00,58.1,56.4,28.52,SSE,158,24.4,26.2,94,0.00,,,0.04,VWS V14.01,2013-10-30 17:20:00,
2013-10-30 12:25:00,52.5,52.0,28.55,SSE,158,14.3,22.4,98,0.00,,,0.04,VWS V14.01,2013-10-30 17:25:00,
2013-10-30 12:30:00,59.5,53.0,28.52,SSE,158,22.2,26.4,79,0.00,,,0.04,VWS V14.01,2013-10-30 17:30:00,
2013-10-30 12:35:00,60.4,52.1,28.52,SE,135,16.8,23.7,74,0.00,,,0.04,VWS V14.01,2013-10-30 17:35:00,
2013-10-30 12:40:00,60.4,51.0,28.52,SSE,158,17.2,27.3,71,0.00,,,0.04,VWS V14.01,2013-10-30 17:40:00,
2013-10-30 12:45:00,61.3,51.9,28.52,SE,135,17.7,23.9,71,0.00,,,0.04,VWS V14.01,2013-10-30 17:45:00,
2013-10-30 12:50:00,53.6,53.0,28.55,SSE,158,16.6,17.7,98,0.00,,,0.04,VWS V14.01,2013-10-30 17:50:00,
2013-10-30 12:55:00,62.8,49.2,28.50,SE,135,23.0,26.2,61,0.00,,,0.04,VWS V14.01,2013-10-30 17:55:00,
2013-10-30 13:00:00,54.7,54.1,28.55,SSE,158,17.0,17.0,98,0.00,,,0.04,VWS V14.01,2013-10-30 18:00:00,
2013-10-30 13:05:00,63.3,46.4,28.47,SE,135,22.8,28.9,54,0.00,,,0.04,VWS V14.01,2013-10-30 18:05:00,
2013-10-30 13:10:00,63.5,45.1,28.47,SE,135,22.2,28.4,51,0.00,,,0.04,VWS V14.01,2013-10-30 18:10:00,
2013-10-30 13:15:00,63.5,45.1,28.47,SSE,158,27.5,28.9,51,0.00,,,0.04,VWS V14.01,2013-10-30 18:15:00,
2013-10-30 13:20:00,62.8,45.9,28.47,SE,135,22.6,27.7,54,0.00,,,0.04,VWS V14.01,2013-10-30 18:20:00,
2013-10-30 13:25:00,59.0,54.2,28.52,SSE,158,22.6,26.2,84,0.00,,,0.04,VWS V14.01,2013-10-30 18:25:00,
2013-10-30 13:30:00,62.1,44.2,28.47,SSE,158,23.3,28.6,52,0.00,,,0.04,VWS V14.01,2013-10-30 18:30:00,
2013-10-30 13:35:00,60.4,52.1,28.52,SE,135,16.8,23.7,74,0.00,,,0.04,VWS V14.01,2013-10-30 18:35:00,
2013-10-30 13:40:00,64.2,44.1,28.47,SSE,158,26.0,32.4,48,0.00,,,0.04,VWS V14.01,2013-10-30 18:40:00,
2013-10-30 13:45:00,61.3,51.9,28.52,SE,135,17.7,23.9,71,0.00,,,0.04,VWS V14.01,2013-10-30 18:45:00,
2013-10-30 13:50:00,65.1,43.8,28.47,SSE,158,30.9,30.9,46,0.00,,,0.04,VWS V14.01,2013-10-30 18:50:00,
2013-10-30 13:55:00,65.1,43.3,28.47,SE,135,27.1,32.2,45,0.00,,,0.04,VWS V14.01,2013-10-30 18:55:00,
2013-10-30 14:00:00,63.0,48.0,28.50,SSE,158,23.7,28.9,58,0.00,,,0.04,VWS V14.01,2013-10-30 19:00:00,
2013-10-30 14:05:00,65.1,43.3,28.47,SE,135,26.4,35.1,45,0.00,,,0.04,VWS V14.01,2013-10-30 19:05:00,
2013-10-30 14:10:00,63.5,45.1,28.47,SE,135,22.2,28.4,51,0.00,,,0.04,VWS V14.01,2013-10-30 19:10:00,
2013-10-30 14:15:00,65.5,43.0,28.47,SE,135,24.4,28.6,44,0.00,,,0.04,VWS V14.01,2013-10-30 19:15:00,
2013-10-30 14:20:00,65.8,43.9,28.47,SSE,158,23.3,27.3,45,0.00,,,0.04,VWS V14.01,2013-10-30 19:20:00,
2013-10-30 14:25:00,66.4,45.0,28.47,SE,135,23.3,26.9,46,0.00,,,0.04,VWS V14.01,2013-10-30 19:25:00,
2013-10-30 14:30:00,66.7,45.3,28.47,SSE,158,19.0,27.1,46,0.00,,,0.04,VWS V14.01,2013-10-30 19:30:00,
2013-10-30 14:35:00,62.2,43.9,28.47,SE,135,27.3,27.3,51,0.00,,,0.04,VWS V14.01,2013-10-30 19:35:00,
2013-10-30 14:40:00,66.4,44.4,28.44,SSE,158,24.4,27.5,45,0.00,,,0.04,VWS V14.01,2013-10-30 19:40:00,
2013-10-30 14:45:00,64.9,44.8,28.47,SE,135,25.7,32.4,48,0.00,,,0.04,VWS V14.01,2013-10-30 19:45:00,
2013-10-30 14:50:00,65.5,44.2,28.47,SSE,158,22.8,28.4,46,0.00,,,0.04,VWS V14.01,2013-10-30 19:50:00,
2013-10-30 14:55:00,65.3,44.6,28.47,South,180,15.7,22.8,47,0.00,,,0.04,VWS V14.01,2013-10-30 19:55:00,
2013-10-30 15:00:00,65.7,44.9,28.47,SSE,158,17.7,23.5,47,0.00,,,0.04,VWS V14.01,2013-10-30 20:00:00,
2013-10-30 15:05:00,65.1,43.3,28.47,SE,135,26.4,35.1,45,0.00,,,0.04,VWS V14.01,2013-10-30 20:05:00,
2013-10-30 15:10:00,65.1,45.0,28.47,SSE,158,18.6,22.8,48,0.00,,,0.04,VWS V14.01,2013-10-30 20:10:00,
2013-10-30 15:15:00,65.3,44.6,28.47,SSE,158,18.1,22.8,47,0.00,,,0.04,VWS V14.01,2013-10-30 20:15:00,
2013-10-30 15:20:00,64.9,44.8,28.47,SSE,158,15.4,24.6,48,0.00,,,0.04,VWS V14.01,2013-10-30 20:20:00,
2013-10-30 15:25:00,64.4,44.3,28.47,SSE,158,17.5,23.9,48,0.00,,,0.04,VWS V14.01,2013-10-30 20:25:00,
2013-10-30 15:30:00,66.7,45.3,28.47,SSE,158,19.0,27.1,46,0.00,,,0.04,VWS V14.01,2013-10-30 20:30:00,
2013-10-30 15:35:00,66.0,45.8,28.44,SSE,158,20.6,24.4,48,0.00,,,0.04,VWS V14.01,2013-10-30 20:35:00,
2013-10-30 15:40:00,66.2,45.4,28.44,SSE,158,23.3,25.3,47,0.00,,,0.04,VWS V14.01,2013-10-30 20:40:00,
2013-10-30 15:45:00,66.2,44.8,28.44,SE,135,19.0,25.5,46,0.00,,,0.04,VWS V14.01,2013-10-30 20:45:00,
2013-10-30 15:50:00,65.3,45.1,28.41,SSE,158,22.4,23.7,48,0.00,,,0.04,VWS V14.01,2013-10-30 20:50:00,
2013-10-30 15:55:00,65.3,44.6,28.47,South,180,15.7,22.8,47,0.00,,,0.04,VWS V14.01,2013-10-30 20:55:00,
2013-10-30 16:00:00,63.9,46.4,28.41,SSE,158,17.2,23.3,53,0.00,,,0.04,VWS V14.01,2013-10-30 21:00:00,
2013-10-30 16:05:00,63.7,46.7,28.44,SSE,158,13.4,22.4,54,0.00,,,0.04,VWS V14.01,2013-10-30 21:05:00,
2013-10-30 16:10:00,65.1,45.0,28.47,SSE,158,18.6,22.8,48,0.00,,,0.04,VWS V14.01,2013-10-30 21:10:00,
2013-10-30 16:15:00,63.1,46.2,28.44,South,180,15.4,19.7,54,0.00,,,0.04,VWS V14.01,2013-10-30 21:15:00,
2013-10-30 16:20:00,64.9,44.8,28.47,SSE,158,15.4,24.6,48,0.00,,,0.04,VWS V14.01,2013-10-30 21:20:00,
2013-10-30 16:25:00,62.8,47.3,28.44,SSE,158,12.8,14.5,57,0.00,,,0.04,VWS V14.01,2013-10-30 21:25:00,
2013-10-30 16:30:00,64.6,45.0,28.47,SSE,158,23.0,24.2,49,0.00,,,0.04,VWS V14.01,2013-10-30 21:30:00,
2013-10-30 16:35:00,62.4,47.9,28.44,South,180,11.0,13.6,59,0.00,,,0.04,VWS V14.01,2013-10-30 21:35:00,
2013-10-30 16:40:00,62.4,48.4,28.44,South,180,9.6,14.3,60,0.00,,,0.04,VWS V14.01,2013-10-30 21:40:00,
2013-10-30 16:45:00,62.4,48.4,28.44,South,180,8.7,12.3,60,0.00,,,0.04,VWS V14.01,2013-10-30 21:45:00,
2013-10-30 16:50:00,65.3,45.1,28.41,SSE,158,22.4,23.7,48,0.00,,,0.04,VWS V14.01,2013-10-30 21:50:00,
2013-10-30 16:55:00,62.2,47.3,28.44,SSW,202,9.8,13.2,58,0.00,,,0.04,VWS V14.01,2013-10-30 21:55:00,
2013-10-30 17:00:00,61.9,45.1,28.44,West,270,10.7,13.2,54,0.00,,,0.04,VWS V14.01,2013-10-30 22:00:00,
2013-10-30 17:05:00,63.7,46.7,28.44,SSE,158,13.4,22.4,54,0.00,,,0.04,VWS V14.01,2013-10-30 22:05:00,
2013-10-30 17:10:00,54.5,41.3,28.47,WNW,292,12.3,15.9,61,0.00,,,0.04,VWS V14.01,2013-10-30 22:10:00,
2013-10-30 17:15:00,53.8,43.1,28.47,NW,315,7.2,12.3,67,0.00,,,0.04,VWS V14.01,2013-10-30 22:15:00,
2013-10-30 17:20:00,53.1,43.9,28.47,NW,315,8.5,12.8,71,0.00,,,0.04,VWS V14.01,2013-10-30 22:20:00,
2013-10-30 17:25:00,52.5,44.1,28.47,WNW,292,2.5,8.5,73,0.00,,,0.04,VWS V14.01,2013-10-30 22:25:00,
2013-10-30 17:30:00,62.6,47.6,28.44,South,180,10.5,15.9,58,0.00,,,0.04,VWS V14.01,2013-10-30 22:30:00,
2013-10-30 17:35:00,52.2,45.5,28.47,WNW,292,5.4,8.5,78,0.00,,,0.04,VWS V14.01,2013-10-30 22:35:00,
2013-10-30 17:40:00,62.4,48.4,28.44,South,180,9.6,14.3,60,0.00,,,0.04,VWS V14.01,2013-10-30 22:40:00,
2013-10-30 17:45:00,52.0,47.0,28.47,WNW,292,6.7,8.5,83,0.00,,,0.04,VWS V14.01,2013-10-30 22:45:00,
2013-10-30 17:50:00,51.8,47.1,28.44,WNW,292,8.1,9.0,84,0.00,,,0.04,VWS V14.01,2013-10-30 22:50:00,
2013-10-30 17:55:00,62.2,47.3,28.44,SSW,202,9.8,13.2,58,0.00,,,0.04,VWS V14.01,2013-10-30 22:55:00,
2013-10-30 18:00:00,51.6,47.6,28.44,WNW,292,6.3,8.1,86,0.00,,,0.04,VWS V14.01,2013-10-30 23:00:00,
2013-10-30 18:05:00,56.5,39.6,28.47,WNW,292,10.7,19.9,53,0.00,,,0.04,VWS V14.01,2013-10-30 23:05:00,
2013-10-30 18:10:00,51.6,48.5,28.47,NW,315,6.0,8.1,89,0.00,,,0.04,VWS V14.01,2013-10-30 23:10:00,
2013-10-30 18:15:00,51.4,48.6,28.47,NNW,338,7.2,10.1,90,0.04,,,0.08,VWS V14.01,2013-10-30 23:15:00,
2013-10-30 18:20:00,51.3,48.4,28.44,WNW,292,9.6,10.3,90,0.04,,,0.08,VWS V14.01,2013-10-30 23:20:00,
2013-10-30 18:25:00,51.1,48.2,28.44,WNW,292,8.7,10.7,90,0.04,,,0.08,VWS V14.01,2013-10-30 23:25:00,
2013-10-30 18:30:00,50.7,47.9,28.44,NW,315,10.5,12.3,90,0.04,,,0.08,VWS V14.01,2013-10-30 23:30:00,
2013-10-30 18:35:00,50.7,47.6,28.44,NW,315,9.0,11.9,89,0.04,,,0.08,VWS V14.01,2013-10-30 23:35:00,
2013-10-30 18:40:00,52.0,46.0,28.47,WNW,292,8.5,9.4,80,0.00,,,0.04,VWS V14.01,2013-10-30 23:40:00,
2013-10-30 18:45:00,50.5,47.4,28.44,WNW,292,7.8,10.3,89,0.04,,,0.08,VWS V14.01,2013-10-30 23:45:00,
2013-10-30 18:50:00,51.8,47.1,28.44,WNW,292,8.1,9.0,84,0.00,,,0.04,VWS V14.01,2013-10-30 23:50:00,
2013-10-30 18:55:00,50.5,47.7,28.44,NNW,338,5.4,9.6,90,0.04,,,0.08,VWS V14.01,2013-10-30 23:55:00,
2013-10-30 19:00:00,51.6,47.6,28.44,WNW,292,6.3,8.1,86,0.00,,,0.04,VWS V14.01,2013-10-31 00:00:00,
2013-10-30 19:05:00,50.5,48.0,28.44,NNW,338,2.7,9.2,91,0.04,,,0.08,VWS V14.01,2013-10-31 00:05:00,
2013-10-30 19:10:00,50.5,48.0,28.44,NW,315,2.0,3.1,91,0.04,,,0.08,VWS V14.01,2013-10-31 00:10:00,
2013-10-30 19:15:00,51.4,48.6,28.47,NNW,338,7.2,10.1,90,0.04,,,0.08,VWS V14.01,2013-10-31 00:15:00,
2013-10-30 19:20:00,50.5,48.0,28.44,NNW,338,2.7,3.8,91,0.00,,,0.08,VWS V14.01,2013-10-31 00:20:00,
2013-10-30 19:25:00,50.5,48.0,28.44,NNW,338,2.9,5.8,91,0.00,,,0.08,VWS V14.01,2013-10-31 00:25:00,
2013-10-30 19:30:00,50.4,47.8,28.44,NNW,338,2.5,3.8,91,0.00,,,0.08,VWS V14.01,2013-10-31 00:30:00,
2013-10-30 19:35:00,50.5,48.0,28.44,NW,315,3.6,4.0,91,0.00,,,0.08,VWS V14.01,2013-10-31 00:35:00,
2013-10-30 19:40:00,50.5,47.4,28.44,WNW,292,8.1,11.4,89,0.04,,,0.08,VWS V14.01,2013-10-31 00:40:00,
2013-10-30 19:45:00,50.5,48.3,28.44,NNW,338,2.7,4.3,92,0.00,,,0.08,VWS V14.01,2013-10-31 00:45:00,
2013-10-30 19:50:00,50.4,47.5,28.44,WNW,292,3.8,10.5,90,0.04,,,0.08,VWS V14.01,2013-10-31 00:50:00,
2013-10-30 19:55:00,50.5,48.3,28.44,NNW,338,2.7,3.4,92,0.00,,,0.08,VWS V14.01,2013-10-31 00:55:00,
2013-10-30 20:00:00,50.5,48.3,28.44,NNW,338,2.2,3.6,92,0.00,,,0.08,VWS V14.01,2013-10-31 01:00:00,
2013-10-30 20:05:00,50.5,48.3,28.47,NNW,338,2.2,3.6,92,0.00,,,0.08,VWS V14.01,2013-10-31 01:05:00,
2013-10-30 20:10:00,50.5,48.0,28.44,NW,315,2.0,3.1,91,0.04,,,0.08,VWS V14.01,2013-10-31 01:10:00,
2013-10-30 20:15:00,50.5,48.3,28.47,NW,315,3.6,3.6,92,0.00,,,0.08,VWS V14.01,2013-10-31 01:15:00,
2013-10-30 20:20:00,50.5,48.3,28.44,NNW,338,2.7,3.6,92,0.00,,,0.08,VWS V14.01,2013-10-31 01:20:00,
2013-10-30 20:25:00,50.5,48.0,28.44,NNW,338,2.9,5.8,91,0.00,,,0.08,VWS V14.01,2013-10-31 01:25:00,
2013-10-30 20:30:00,50.7,48.8,28.44,NNW,338,2.9,3.6,93,0.00,,,0.08,VWS V14.01,2013-10-31 01:30:00,
2013-10-30 20:35:00,50.7,48.8,28.44,NNW,338,3.4,3.8,93,0.00,,,0.08,VWS V14.01,2013-10-31 01:35:00,
2013-10-30 20:40:00,50.5,48.6,28.44,WNW,292,1.3,3.4,93,0.00,,,0.08,VWS V14.01,2013-10-31 01:40:00,
2013-10-30 20:45:00,50.5,48.3,28.44,NNW,338,2.7,4.3,92,0.00,,,0.08,VWS V14.01,2013-10-31 01:45:00,
2013-10-30 20:50:00,50.5,48.6,28.44,NW,315,2.5,3.6,93,0.00,,,0.08,VWS V14.01,2013-10-31 01:50:00,
2013-10-30 20:55:00,50.5,48.6,28.44,NW,315,2.5,4.0,93,0.00,,,0.08,VWS V14.01,2013-10-31 01:55:00,
2013-10-30 21:00:00,50.5,48.3,28.44,NNW,338,2.2,3.6,92,0.00,,,0.08,VWS V14.01,2013-10-31 02:00:00,
2013-10-30 21:05:00,50.5,48.6,28.44,WNW,292,2.9,4.3,93,0.00,,,0.08,VWS V14.01,2013-10-31 02:05:00,
2013-10-30 21:10:00,50.5,48.3,28.47,NNW,338,2.5,3.4,92,0.00,,,0.08,VWS V14.01,2013-10-31 02:10:00,
2013-10-30 21:15:00,50.4,48.4,28.44,WNW,292,3.4,5.8,93,0.00,,,0.08,VWS V14.01,2013-10-31 02:15:00,
2013-10-30 21:20:00,50.2,48.0,28.44,NW,315,4.0,8.5,92,0.00,,,0.08,VWS V14.01,2013-10-31 02:20:00,
2013-10-30 21:25:00,50.2,48.0,28.44,NNW,338,6.0,6.0,92,0.00,,,0.08,VWS V14.01,2013-10-31 02:25:00,
2013-10-30 21:30:00,50.2,48.2,28.44,WNW,292,3.8,6.0,93,0.00,,,0.08,VWS V14.01,2013-10-31 02:30:00,
2013-10-30 21:35:00,50.7,48.8,28.44,NNW,338,3.4,3.8,93,0.00,,,0.08,VWS V14.01,2013-10-31 02:35:00,
2013-10-30 21:40:00,50.0,48.1,28.41,WNW,292,4.3,5.4,93,0.00,,,0.08,VWS V14.01,2013-10-31 02:40:00,
2013-10-30 21:45:00,50.5,48.6,28.44,NNW,338,2.5,3.1,93,0.00,,,0.08,VWS V14.01,2013-10-31 02:45:00,
2013-10-30 21:50:00,49.8,47.9,28.41,WNW,292,2.9,7.8,93,0.00,,,0.08,VWS V14.01,2013-10-31 02:50:00,
2013-10-30 21:55:00,49.8,47.9,28.41,NW,315,2.9,4.7,93,0.00,,,0.08,VWS V14.01,2013-10-31 02:55:00,
2013-10-30 22:00:00,49.6,47.7,28.41,WNW,292,4.0,6.3,93,0.00,,,0.08,VWS V14.01,2013-10-31 03:00:00,
2013-10-30 22:05:00,49.6,47.7,28.41,WNW,292,5.8,7.8,93,0.00,,,0.08,VWS V14.01,2013-10-31 03:05:00,
2013-10-30 22:10:00,50.4,48.4,28.44,NNW,338,4.3,4.7,93,0.00,,,0.08,VWS V14.01,2013-10-31 03:10:00,
2013-10-30 22:15:00,49.5,47.5,28.41,NW,315,3.4,5.4,93,0.00,,,0.08,VWS V14.01,2013-10-31 03:15:00,
2013-10-30 22:20:00,50.2,48.0,28.44,NW,315,4.0,8.5,92,0.00,,,0.08,VWS V14.01,2013-10-31 03:20:00,
2013-10-30 22:25:00,48.9,47.0,28.41,WNW,292,10.7,11.0,93,0.00,,,0.08,VWS V14.01,2013-10-31 03:25:00,
2013-10-30 22:30:00,48.6,46.1,28.41,WNW,292,9.6,11.4,91,0.00,,,0.08,VWS V14.01,2013-10-31 03:30:00,
2013-10-30 22:35:00,48.4,45.6,28.44,WNW,292,8.7,10.7,90,0.00,,,0.08,VWS V14.01,2013-10-31 03:35:00,
2013-10-30 22:40:00,48.2,45.4,28.44,WNW,292,6.5,10.5,90,0.00,,,0.08,VWS V14.01,2013-10-31 03:40:00,
2013-10-30 22:45:00,49.8,47.9,28.41,NW,315,7.8,7.8,93,0.00,,,0.08,VWS V14.01,2013-10-31 03:45:00,
2013-10-30 22:50:00,47.8,45.3,28.44,WNW,292,7.4,10.5,91,0.00,,,0.08,VWS V14.01,2013-10-31 03:50:00,
2013-10-30 22:55:00,47.5,45.0,28.44,WNW,292,11.2,13.0,91,0.00,,,0.08,VWS V14.01,2013-10-31 03:55:00,
2013-10-30 23:00:00,47.1,44.3,28.44,WNW,292,7.6,11.2,90,0.00,,,0.08,VWS V14.01,2013-10-31 04:00:00,
2013-10-30 23:05:00,46.9,44.2,28.41,WNW,292,9.8,11.0,90,0.00,,,0.08,VWS V14.01,2013-10-31 04:05:00,
2013-10-30 23:10:00,46.8,44.0,28.41,WNW,292,10.3,11.2,90,0.00,,,0.08,VWS V14.01,2013-10-31 04:10:00,
2013-10-30 23:15:00,46.4,43.6,28.41,WNW,292,10.7,13.0,90,0.00,,,0.08,VWS V14.01,2013-10-31 04:15:00,
2013-10-30 23:20:00,46.0,43.3,28.41,WNW,292,14.8,15.2,90,0.00,,,0.08,VWS V14.01,2013-10-31 04:20:00,
2013-10-30 23:25:00,45.9,43.1,28.41,WNW,292,10.3,14.8,90,0.00,,,0.08,VWS V14.01,2013-10-31 04:25:00,
2013-10-30 23:30:00,45.5,42.7,28.41,WNW,292,11.0,14.8,90,0.00,,,0.08,VWS V14.01,2013-10-31 04:30:00,
2013-10-30 23:35:00,45.3,42.6,28.41,WNW,292,15.2,15.2,90,0.00,,,0.08,VWS V14.01,2013-10-31 04:35:00,
2013-10-30 23:40:00,45.1,42.4,28.41,WNW,292,13.2,17.5,90,0.00,,,0.08,VWS V14.01,2013-10-31 04:40:00,
2013-10-30 23:45:00,44.8,41.7,28.41,NW,315,9.4,13.2,89,0.00,,,0.08,VWS V14.01,2013-10-31 04:45:00,
2013-10-30 23:50:00,44.8,41.7,28.41,WNW,292,11.0,15.4,89,0.00,,,0.08,VWS V14.01,2013-10-31 04:50:00,
2013-10-30 23:55:00,47.5,45.0,28.44,WNW,292,11.2,13.0,91,0.00,,,0.08,VWS V14.01,2013-10-31 04:55:00,